Weather History for KMCW - March, 2013

Change the Weather History Date:

Monday, March 4, 2013

  Actual Average Record
Temperature  
Mean Temperature 25 °F 28 °F  
Max Temperature 28 °F 36 °F 65 °F (1983)
Min Temperature 22 °F 19 °F -8 °F (1978)
Degree Days  
Heating Degree Days 40 37  
Month to date heating degree days 177 152  
Since 1 July heating degree days 5738 6003  
Cooling Degree Days 0 0  
Month to date cooling degree days 0 0  
Year to date cooling degree days 0 0  
Moisture  
Dew Point 21 °F    
Average Humidity 84    
Maximum Humidity 92    
Minimum Humidity 75    
Precipitation  
Precipitation 0.07 in 0.05 in 1.00 in (1923)
Month to date precipitation 0.07 0.21  
Year to date precipitation 1.74 2.03  
Snow  
Snow 2.50 in 0.30 in 5.00 in (1962)
Month to date snowfall 2.5 1.0  
Since 1 July snowfall 24.5 33.5  
Snow Depth 5.00 in    
Sea Level Pressure  
Sea Level Pressure 29.93 in    
Wind  
Wind Speed 17 mph (ESE)    
Max Wind Speed 23 mph    
Max Gust Speed 33 mph    
Visibility 4 miles    
Events Snow    
T = Trace of Precipitation, MM = Missing Value Source: NWS Daily Summary

Daily Weather History Graph

Daily Weather History Graph

Search for Another Location

Airport or City:

Trip Planner

Search our weather history database for the weather conditions in past years. The results will help you decide how hot, cold, wet, or windy it might be!

Date:

Astronomy

Mar. 04, 2013 Rise Set
Actual Time 6:43 AM CST 6:06 PM CST
Civil Twilight 6:15 AM CST 6:35 PM CST
Nautical Twilight 5:42 AM CST 7:08 PM CST
Astronomical Twilight 5:09 AM CST 7:41 PM CST
Moon 1:00 AM CST (3/4) 10:41 AM CST (3/4)
Length of Visible Light 12h 19m
Length of Day
11h 22m
Waning Gibbous, 52% of the Moon is Illuminated
Mar 4
Waning Gibbous
Mar 4
Last Quarter
Mar 11
New
Mar 19
First Quarter
Mar 27
Full

Hourly Weather History & Observations

Time (CST) Temp. Windchill Dew Point Humidity Pressure Visibility Wind Dir Wind Speed Gust Speed Precip Events Conditions
12:11 AM 23.0 °F 9.2 °F 17.6 °F 80% 29.96 in 1.5 mi SE 17.3 mph 25.3 mph 0.00 in Snow Light Snow
12:53 AM 21.9 °F 7.8 °F 18.0 °F 85% 29.98 in 1.5 mi SE 17.3 mph - 0.00 in Snow Light Snow
1:19 AM 23.0 °F 8.3 °F 19.4 °F 86% 29.94 in 1.0 mi SE 19.6 mph - N/A Snow Light Snow
1:53 AM 23.0 °F 8.7 °F 19.0 °F 85% 29.96 in 0.8 mi SE 18.4 mph - 0.00 in Snow Light Snow
2:13 AM 23.0 °F 9.2 °F 19.4 °F 86% 29.91 in 1.0 mi SE 17.3 mph 26.5 mph 0.00 in Snow Light Snow
2:42 AM 23.0 °F 8.0 °F 19.4 °F 86% 29.90 in 1.0 mi SE 20.7 mph 26.5 mph 0.01 in Snow Light Snow
2:49 AM 23.0 °F 8.0 °F 19.4 °F 86% 29.89 in 0.8 mi ESE 20.7 mph 26.5 mph N/A Snow Light Snow
2:53 AM 23.0 °F 8.7 °F 19.0 °F 85% 29.92 in 1.0 mi ESE 18.4 mph - 0.01 in Snow Light Snow
3:25 AM 21.2 °F 6.4 °F 19.4 °F 93% 29.89 in 0.8 mi ESE 18.4 mph 25.3 mph 0.00 in Snow Light Snow
3:53 AM 21.9 °F 8.2 °F 19.0 °F 89% 29.93 in 0.8 mi ESE 16.1 mph 23.0 mph 0.00 in Snow Light Snow
4:46 AM 21.2 °F 6.8 °F 19.4 °F 93% 29.88 in 1.2 mi ESE 17.3 mph - 0.01 in Snow Light Snow
4:53 AM 21.9 °F 6.9 °F 19.0 °F 89% 29.91 in 1.5 mi ESE 19.6 mph - 0.01 in Snow Light Snow
5:19 AM 23.0 °F 8.3 °F 19.4 °F 86% 29.87 in 2.0 mi ESE 19.6 mph 25.3 mph 0.00 in Snow Light Snow
5:36 AM 23.0 °F 7.6 °F 19.4 °F 86% 29.86 in 3.0 mi ESE 21.9 mph 27.6 mph 0.00 in Snow Light Snow
5:53 AM 23.0 °F 7.6 °F 19.0 °F 85% 29.90 in 3.0 mi ESE 21.9 mph 29.9 mph 0.00 in Snow Light Snow
5:59 AM 23.0 °F 7.6 °F 19.4 °F 86% 29.86 in 2.5 mi ESE 21.9 mph - 0.00 in Snow Light Snow
6:11 AM 23.0 °F 6.9 °F 19.4 °F 86% 29.86 in 3.0 mi ESE 24.2 mph 29.9 mph 0.00 in Snow Light Snow
6:35 AM 23.0 °F 8.3 °F 19.4 °F 86% 29.86 in 6.0 mi ESE 19.6 mph 29.9 mph 0.00 in Snow Light Snow
6:53 AM 23.0 °F 8.3 °F 19.0 °F 85% 29.91 in 4.0 mi ESE 19.6 mph - 0.00 in   Overcast
7:34 AM 23.0 °F 8.3 °F 19.4 °F 86% 29.87 in 6.0 mi ESE 19.6 mph 31.1 mph N/A   Overcast
7:53 AM 23.0 °F 8.0 °F 19.0 °F 85% 29.91 in 6.0 mi ESE 20.7 mph 28.8 mph N/A   Overcast
8:53 AM 24.1 °F 9.0 °F 19.9 °F 84% 29.91 in 6.0 mi ESE 21.9 mph 27.6 mph N/A   Overcast
9:53 AM 24.1 °F 9.0 °F 19.9 °F 84% 29.90 in 6.0 mi ESE 21.9 mph 28.8 mph N/A   Overcast
10:53 AM 26.1 °F 12.7 °F 21.0 °F 81% 29.91 in 6.0 mi ESE 18.4 mph 28.8 mph N/A   Haze
11:53 AM 27.0 °F 13.5 °F 21.9 °F 81% 29.91 in 6.0 mi ESE 19.6 mph 31.1 mph N/A   Haze
12:53 PM 27.0 °F 12.5 °F 21.9 °F 81% 29.90 in 5.0 mi ESE 23.0 mph 33.4 mph N/A   Haze
1:53 PM 28.0 °F 14.3 °F 21.9 °F 78% 29.89 in 6.0 mi ESE 21.9 mph 29.9 mph N/A   Haze
2:53 PM 28.0 °F 15.7 °F 21.9 °F 78% 29.91 in 6.0 mi ESE 17.3 mph 24.2 mph N/A   Haze
3:53 PM 28.0 °F 17.5 °F 21.9 °F 78% 29.93 in 8.0 mi ESE 12.7 mph - N/A   Overcast
4:10 PM 28.4 °F 18.0 °F 21.2 °F 74% 29.88 in 8.0 mi ESE 12.7 mph - N/A   Overcast
4:53 PM 28.0 °F 16.5 °F 21.9 °F 78% 29.93 in 9.0 mi ESE 15.0 mph - N/A   Overcast
5:53 PM 28.0 °F 17.5 °F 21.9 °F 78% 29.94 in 9.0 mi ESE 12.7 mph 21.9 mph N/A   Overcast
6:53 PM 28.0 °F 17.0 °F 21.9 °F 78% 29.96 in 10.0 mi ESE 13.8 mph - 0.00 in   Overcast
7:53 PM 28.0 °F 20.0 °F 21.9 °F 78% 30.00 in 9.0 mi SE 8.1 mph - N/A   Overcast
8:53 PM 27.0 °F 18.0 °F 21.9 °F 81% 30.03 in 4.0 mi SE 9.2 mph - 0.01 in Snow Light Snow
9:51 PM 26.6 °F 20.0 °F 23.0 °F 86% 29.98 in 1.8 mi ESE 5.8 mph - 0.01 in Snow Light Snow
9:53 PM 26.1 °F 19.4 °F 23.0 °F 88% 30.02 in 1.8 mi ESE 5.8 mph - 0.01 in Snow Light Snow
10:01 PM 26.6 °F 19.1 °F 23.0 °F 86% 29.98 in 3.0 mi ESE 6.9 mph - 0.00 in Snow Light Snow
10:20 PM 26.6 °F 21.2 °F 23.0 °F 86% 29.98 in 2.5 mi ESE 4.6 mph - 0.01 in Snow Light Snow
10:24 PM 26.6 °F 22.6 °F 23.0 °F 86% 29.98 in 1.2 mi ESE 3.5 mph - 0.02 in Snow Light Snow
10:29 PM 26.6 °F 22.6 °F 23.0 °F 86% 29.98 in 0.8 mi ESE 3.5 mph - 0.02 in Snow Light Snow
10:38 PM 26.6 °F 22.6 °F 23.0 °F 86% 29.98 in 1.0 mi ESE 3.5 mph - 0.03 in Snow Light Snow
10:50 PM 26.6 °F - 23.0 °F 86% 29.98 in 2.5 mi Calm Calm - 0.03 in   Overcast
10:53 PM 26.1 °F 21.9 °F 23.0 °F 88% 30.01 in 2.5 mi ESE 3.5 mph - 0.03 in   Overcast
11:00 PM 26.6 °F 22.6 °F 23.0 °F 86% 29.97 in 4.0 mi ESE 3.5 mph - N/A   Overcast
11:09 PM 26.6 °F 22.6 °F 23.0 °F 86% 29.97 in 2.5 mi ESE 3.5 mph - 0.00 in Snow Light Snow
11:53 PM 26.1 °F 19.4 °F 23.0 °F 88% 29.98 in 3.0 mi East 5.8 mph - 0.00 in   Overcast